Regional Weather Roundup
Issued by NWS Portland, ME

Home | Current Version | Previous Version | Text Only | Print | Product List | Glossary On
Versions: 1 2 3 4 5 6 7 8 9 10 11 12 13 14 15 16 17 18 19 20 21 22 23 24 25 26 27 28 29 30 31 32 33 34 35 36 37 38 39 40 41 42 43 44 45 46 47 48 49 50
000
ASUS41 KGYX 181510
RWRGYX
WEATHER ROUNDUP FOR MAINE AND NEW HAMPSHIRE
NATIONAL WEATHER SERVICE GRAY ME
1000 AM EST MON DEC 18 2017

MEZ002-005-006-010-012-015-018-020-021-024-026-027-029-181600-
MAINE

CITY           SKY/WX    TMP DP  RH WIND       PRES   REMARKS
PORTLAND       FLURRIES  18  10  71 VRB3      30.17F
SANFORD        LGT SNOW  19  14  81 CALM      30.16F
BAR HARBOR     CLOUDY    18  11  74 N3        30.18F
WISCASSET      LGT SNOW  17   9  70 CALM      30.16F
ROCKLAND       CLOUDY    24  16  71 N3        30.16F
FRYEBURG       CLOUDY    11   7  84 CALM      30.13F
LEWISTONAUBURN LGT SNOW  14   9  80 CALM      30.15F
AUGUSTA        CLOUDY    12   5  73 CALM      30.15S
WATERVILLE     CLOUDY    15   6  67 CALM      30.10F
BANGOR         CLOUDY    11   4  73 S3        30.17F
GREENVILLE       N/A      6  -2  69 SE10      29.99S WCI  -9
MILLINOCKET    CLOUDY     8   2  76 E6        30.13F
HOULTON        CLOUDY     5  -3  69 CALM      30.12R
PRESQUE ISLE   CLOUDY     5   1  83 CALM      30.11F
FRENCHVILLE    CLOUDY    -1  -5  82 S6        30.03F
CARIBOU        CLOUDY     2  -5  72 CALM      30.08F
$$

NHZ002-005-008-009-011-012-014-181600-
NEW HAMPSHIRE

CITY           SKY/WX    TMP DP  RH WIND       PRES   REMARKS
PORTSMOUTH     FLURRIES  19  13  78 N3        30.15F
ROCHESTER      LGT SNOW  18  15  88 CALM      30.14F FOG
NASHUA         CLOUDY    24  12  60 SE3       30.14F
MANCHESTER     CLOUDY    21  11  65 SE5       30.12F
CONCORD        LGT SNOW  18  14  84 CALM      30.14F FOG
LACONIA        LGT SNOW  19  14  81 CALM      30.12F
PLYMOUTH       LGT SNOW  14  10  82 CALM      30.13F
BERLIN         CLOUDY     5   1  83 CALM      30.04F
WHITEFIELD     CLOUDY     8   5  87 CALM      30.05F
JAFFREY        CLOUDY    24  14  65 SW3       30.07F
KEENE          CLOUDY    20  16  84 CALM      30.11F
LEBANON        CLOUDY    16  10  77 CALM      30.09F
MT WASHINGTON  SNOW      18  18 100 W46         N/A  VSB 0   WCI  -5
$$

VTZ005-007-008-181600-
VERMONT

CITY           SKY/WX    TMP DP  RH WIND       PRES   REMARKS
ST JOHNSBURY     N/A      8   4  83 MISG      30.06F
MONTPELIER     LGT SNOW  10   7  87 CALM      30.04F FOG
BURLINGTON     CLOUDY    27  17  66 S10       30.01F WCI  17
$$

MAZ007-012-024-CTZ003-RIZ002-NYZ038-NYZ072-181600-
SOUTHERN NEW ENGLAND AND NY

CITY           SKY/WX    TMP DP  RH WIND       PRES   REMARKS
BOSTON         FLURRIES  29  13  51 CALM      30.16F
WORCESTER      CLOUDY    24  12  60 S5        30.08F
NANTUCKET      CLOUDY    35  23  61 S7        30.16F
PROVIDENCE     CLOUDY    30  17  58 CALM      30.15F
HARTFORD       CLOUDY    28  14  55 CALM      30.12F
ALBANY         FLURRIES  24  15  68 CALM      30.08F
NEW YORK CITY  CLOUDY    39  32  76 NE8       30.11S
$$

ANZ081-ANZ082-ANZ150-NHZ014-MEZ023>029-181600-
COASTAL MARINE OBSERVATIONS

STATION/POSITION TIME  TEMP    WIND        PRES    WAVE
                       AIR SEA DIR/SP/G            HT/PER
                 (UTC) (F)     (DEG/KT/KT) (MB)    (FT/S)
MOUNT DESERT ROC 1500   26     160/  6/  7 1021.7F
MATINICUS ROCK   1400   27     190/  7/  9 1021.2F
ISLE OF SHOALS   1400   24     240/  3/  5 1022.0R
JEFFREYS LEDGE   1436      47                N/A     1/11
GEORGES BANK BUO 1350   38 50              1022.2    4/ 7
$$

.............KEY..............
   WCI - WIND CHILL
   TC  - TEMPERATURE IN CELSIUS
   VSB - VISIBILITY IN MILES
   HX  - HEAT INDEX
   FAIR- INDICATES FEW OR NO CLOUDS BELOW 12,000 FT, WITH NO
         SIGNIFICANT WEATHER AND/OR OBSTRUCTIONS TO VISIBILITY.






USA.gov is the U.S. government's official web portal to all federal, state and local government web resources and services.